Вернуться в каталог

ARIANE 5 R/B

АктивенHEO
NORAD 36746·ROCKET BODY·🇫🇷 France

Запущен Jun 26, 2010 с Guiana Space Centre

Loading…

Ближайшие Пролёты (ближайшие 24 часа)

TLE

СвежийSource: Space-Track

Эпоха: Sep 14, 2026, 10:23 UTC

1 36746U 10032C   26257.43317055  .00003374  00000-0  96114-3 0  9993
2 36746   1.7450 315.8516 7039059  47.2814 353.4093  2.58769128143804

Отслеживайте ARIANE 5 R/B в реальном времени с AllMySat

Download on the App Store